Tracking 17265 objects as of 3-September-2015
HD Live streaming from Space Station

Track Soyuz TMA-18M
and Space Station

INTELSAT 705

Track INTELSAT 705 now!
INTELSAT 705 is classified as:


NORAD ID: 23528
Int'l Code: 1995-013A
Perigee: 36,089.8 km
Apogee: 36,233.8 km
Inclination: 4.7 °
Period: 1,454.9 minutes
Semi major axis: 42532 km
RCS: 12.1482 m2 (large)
Launch date: March 22, 1995
Source: International Telecommunications Satellite Organization (ITSO)

42 C-band, 24 Ku-band; broadcasting, business services, direct-to-home TV broadcasting, telecommunications, VSATnetworks; Atlantic Ocean region.
Your satellite tracking list
Your tracking list is empty





NASA's NSSDC Master Catalog

Two Line Element Set (TLE):
1 23528U 95013A   15244.64166836 -.00000002 +00000-0 +00000-0 0  9997
2 23528 004.7307 061.9903 0016930 022.9393 165.4304 00.98972949074526

Source of the keplerian elements: AFSPC

N2YO: 524